This is the latest recevied weather packets stored in our database for station/object K0QJ. If no packets are shown the sender has not sent any weather packets the latest 10 day(s).
| Time | Temp. | Humidity | Pressure | Rain* | Wind** | Luminosity | Snow |
|---|---|---|---|---|---|---|---|
| 1778005869 | 7.78° C | 96% | 1011.2 hPa | 1.27 mm | - | 150 W/m² | - |
| 1778005565 | 7.78° C | 96% | 1011.6 hPa | 0 mm | - | 144 W/m² | - |
| 1778005262 | 7.78° C | 96% | 1011.8 hPa | 1.78 mm | - | 126 W/m² | - |
| 1778004959 | 7.78° C | 96% | 1011.7 hPa | 1.78 mm | - | 111 W/m² | - |
| 1778004656 | 7.78° C | 96% | 1011.5 hPa | 0 mm | - | 125 W/m² | - |
| 1778004351 | 7.22° C | 96% | 1011.7 hPa | 0 mm | - | 127 W/m² | - |
| 1778004050 | 7.78° C | 96% | 1011.8 hPa | 0 mm | - | 162 W/m² | - |
| 1778003750 | 7.78° C | 96% | 1011.8 hPa | 0 mm | - | 128 W/m² | - |
| 1778003446 | 7.78° C | 97% | 1011.8 hPa | 0 mm | - | 88 W/m² | - |
| 1778003138 | 7.78° C | 96% | 1011.9 hPa | 0 mm | - | 84 W/m² | - |
| 1778002834 | 7.78° C | 96% | 1011.8 hPa | 0 mm | - | 99 W/m² | - |
| 1778002531 | 7.78° C | 96% | 1012 hPa | 0 mm | - | 81 W/m² | - |
| 1778002228 | 7.78° C | 96% | 1011.8 hPa | 0 mm | - | 144 W/m² | - |
| 1778001926 | 7.78° C | 96% | 1011.8 hPa | 0 mm | - | 109 W/m² | - |
| 1778001622 | 8.33° C | 96% | 1011.5 hPa | 1.78 mm | - | 112 W/m² | - |
| 1778001317 | 7.78° C | 96% | 1011.7 hPa | 0 mm | - | 183 W/m² | - |
| 1778001014 | 7.78° C | 96% | 1012.1 hPa | 0 mm | - | 94 W/m² | - |
| 1778000711 | 7.22° C | 96% | 1011.7 hPa | 0 mm | - | 85 W/m² | - |
| 1778000407 | 7.22° C | 96% | 1011.8 hPa | 0 mm | - | 66 W/m² | - |
| 1778000102 | 7.78° C | 96% | 1011.7 hPa | 0 mm | - | 105 W/m² | - |
| 1777999798 | 7.22° C | 96% | 1011.4 hPa | 1.27 mm | - | 148 W/m² | - |
| 1777999495 | 7.78° C | 96% | 1011.6 hPa | 1.27 mm | - | 94 W/m² | - |
| 1777999193 | 7.22° C | 96% | 1011.5 hPa | 1.78 mm | - | 124 W/m² | - |
| 1777998891 | 7.22° C | 96% | 1011.3 hPa | 1.78 mm | - | 125 W/m² | - |
| 1777998590 | 7.22° C | 96% | 1011.7 hPa | 0 mm | - | 103 W/m² | - |
* Rain latest hour (hover to see other rain measurements)
** Current wind speed in m/s (hover to see current wind gust speed)